Date,TemperatureHighF,TemperatureAvgF,TemperatureLowF,DewpointHighF,DewpointAvgF,DewpointLowF,HumidityHigh,HumidityAvg,HumidityLow,PressureMaxIn,PressureMinIn,WindSpeedMaxMPH,WindSpeedAvgMPH,GustSpeedMaxMPH,PrecipitationSumIn
2013-1-1,48,47,44,48,40,29,98,81,48,30.13,29.94,5,0,11,0.24
2013-1-2,48,43,39,48,42,38,99,96,85,30.21,29.94,3,0,5,0.23
2013-1-3,45,39,29,39,37,29,98,93,77,30.28,30.17,2,0,3,0.00
2013-1-4,49,37,25,32,27,23,99,72,39,30.34,30.22,4,0,7,0.00
2013-1-5,52,38,26,32,27,23,93,67,36,30.41,30.28,3,0,5,0.00
2013-1-6,51,43,34,40,36,31,97,79,60,30.28,30.08,2,0,5,0.01
2013-1-7,52,39,28,36,32,28,99,81,49,30.47,30.20,3,0,7,0.00
2013-1-8,55,42,30,42,36,28,97,82,53,30.50,30.39,0,0,2,0.00
2013-1-9,69,50,35,53,44,34,99,84,57,30.47,30.37,4,0,6,0.00
2013-1-10,64,53,47,50,44,35,98,73,49,30.55,30.42,2,0,4,0.00
2013-1-11,52,47,42,51,44,34,99,89,63,30.46,30.17,3,0,3,0.20
2013-1-12,69,58,50,63,57,50,100,96,80,30.19,30.11,2,0,3,0.00
2013-1-13,75,63,56,64,59,55,100,88,65,30.15,30.06,5,0,10,0.01
2013-1-14,69,64,54,64,61,53,99,91,78,30.17,30.08,3,0,9,0.14
2013-1-15,54,45,44,52,45,43,99,98,96,30.26,30.08,5,0,10,0.04
2013-1-16,50,46,43,50,46,42,100,99,98,30.10,29.99,2,0,5,0.20
2013-1-17,51,46,34,50,46,33,100,99,96,30.15,29.92,6,1,11,1.14
2013-1-18,45,35,28,37,32,26,99,88,47,30.56,30.16,3,0,7,0.51
2013-1-19,54,39,25,33,29,24,98,73,36,30.53,30.18,2,0,8,0.14
2013-1-20,63,48,36,36,34,30,80,60,33,30.17,30.00,6,1,13,0.00
2013-1-21,59,44,29,34,29,19,97,61,29,30.10,29.87,4,0,10,0.00
2013-1-22,38,31,20,24,10,0,66,42,22,30.31,29.97,5,0,14,0.00
2013-1-23,40,28,16,18,13,5,88,56,31,30.41,30.09,5,0,10,0.00
2013-1-24,36,30,21,26,16,7,76,56,31,30.55,29.98,8,1,15,0.00
2013-1-25,28,24,17,27,17,6,95,76,44,30.56,30.14,2,0,6,0.00
2013-1-26,36,30,26,34,29,25,98,95,89,30.43,30.12,1,0,4,0.02
2013-1-27,41,31,22,31,27,21,98,86,64,30.64,30.43,4,0,6,0.04
2013-1-28,51,42,29,48,38,27,95,84,60,30.54,30.24,5,0,9,0.02
2013-1-29,74,60,49,58,53,48,97,81,56,30.25,30.07,5,1,8,0.00
2013-1-30,72,67,61,65,63,58,95,85,76,30.07,29.38,20,3,31,0.05
2013-1-31,65,48,36,63,32,21,93,56,34,30.02,29.42,11,2,21,0.21
2013-2-1,41,34,23,29,16,3,70,49,24,30.42,29.89,14,1,15,0.00
2013-2-2,45,32,17,33,16,11,87,54,28,30.43,30.06,6,1,15,0.00
2013-2-3,49,40,32,36,31,24,95,71,41,30.05,29.87,4,0,9,0.00
2013-2-4,49,38,24,29,24,20,91,61,36,30.17,30.02,4,0,7,0.00
2013-2-5,59,47,39,36,33,29,83,61,39,30.03,29.90,6,0,9,0.00
2013-2-6,62,46,33,38,31,25,94,62,25,30.32,29.98,4,0,7,0.00
2013-2-7,49,42,36,42,38,34,97,85,68,30.36,30.03,3,0,9,0.56
2013-2-8,56,45,39,47,41,31,98,86,62,30.05,29.82,6,1,10,0.67
2013-2-9,53,39,29,32,25,18,91,61,26,30.38,30.04,5,0,8,0.00
2013-2-10,54,41,27,41,25,20,87,54,28,30.52,30.24,3,0,6,0.02
2013-2-11,63,56,45,60,54,41,99,93,85,30.24,29.92,9,1,15,0.04
2013-2-12,61,53,43,55,38,28,93,60,29,30.09,29.93,4,0,8,0.00
2013-2-13,48,46,41,47,44,39,98,93,70,29.97,29.63,2,0,8,0.34
2013-2-14,52,40,30,39,34,30,99,81,48,30.10,29.83,6,0,7,0.01
2013-2-15,63,46,31,41,34,30,99,70,32,30.11,29.95,5,0,10,0.00
2013-2-16,45,37,32,38,34,30,98,91,71,29.99,29.85,3,0,4,0.20
2013-2-17,37,29,21,31,18,9,97,66,32,30.31,29.93,8,1,14,0.00
2013-2-18,53,34,17,28,20,16,96,61,27,30.45,30.29,3,0,11,0.04
2013-2-19,52,44,33,50,40,28,98,86,60,30.28,29.87,6,1,16,0.09
2013-2-20,52,40,30,39,22,13,98,53,21,30.17,29.97,6,1,10,0.00
2013-2-21,55,39,24,25,21,18,86,51,25,30.30,30.14,4,0,8,0.00
2013-2-22,41,37,32,36,32,22,98,85,47,30.38,30.16,3,0,6,0.23
2013-2-23,44,40,36,44,40,36,99,98,97,30.16,29.83,3,0,6,0.53
2013-2-24,64,49,36,47,39,29,100,74,28,30.05,29.81,5,0,7,0.04
2013-2-25,43,37,30,31,26,23,87,66,45,30.25,30.06,5,0,7,0.00
2013-2-26,57,45,34,57,42,27,99,90,70,30.18,29.59,7,1,11,0.71
2013-2-27,61,50,43,47,41,36,99,75,41,29.79,29.62,5,1,12,0.00
2013-2-28,50,42,32,40,33,28,97,74,45,29.87,29.70,5,0,11,0.00
2013-3-1,51,40,29,34,30,27,93,71,43,29.93,29.85,5,0,8,0.00
2013-3-2,49,39,29,32,28,22,92,65,40,29.93,29.83,6,0,8,0.00
2013-3-3,48,36,27,25,22,18,86,61,37,30.00,29.85,6,1,10,0.00
2013-3-4,52,36,22,23,18,14,83,53,23,30.13,29.99,4,0,10,0.00
2013-3-5,52,43,33,45,35,21,97,76,37,30.11,29.60,5,0,7,0.49
2013-3-6,45,41,36,41,35,30,98,82,62,30.03,29.52,13,2,17,0.02
2013-3-7,51,40,29,35,31,27,97,72,48,30.25,30.03,12,0,12,0.00
2013-3-8,56,41,26,32,27,24,95,62,32,30.31,30.16,7,1,13,0.00
2013-3-9,64,45,29,33,29,26,91,59,27,30.36,30.26,5,0,7,0.00
2013-3-10,69,51,31,33,28,20,90,46,17,30.34,30.23,4,0,8,0.00
2013-3-11,70,57,42,54,45,26,93,66,40,30.26,29.95,7,1,15,0.00
2013-3-12,70,61,47,63,54,38,98,81,58,29.95,29.76,12,1,15,0.67
2013-3-13,58,45,32,38,30,20,97,59,29,30.14,29.95,7,1,12,0.00
2013-3-14,55,40,28,24,21,17,76,50,23,30.25,30.12,6,1,11,0.00
2013-3-15,63,46,27,37,28,20,85,54,32,30.20,29.91,8,1,16,0.00
2013-3-16,78,63,49,54,45,36,68,54,34,29.91,29.64,9,1,15,0.00
2013-3-17,64,50,40,53,45,38,96,82,67,30.20,29.83,6,1,8,0.00
2013-3-18,43,40,38,42,40,37,98,97,95,30.22,29.87,4,0,7,0.24
2013-3-19,68,52,40,48,35,16,99,63,16,30.04,29.83,7,1,12,0.01
2013-3-20,59,45,33,28,19,13,69,36,20,30.12,29.81,4,0,12,0.00
2013-3-21,46,38,29,32,21,11,88,52,28,29.99,29.74,8,1,13,0.00
2013-3-22,53,37,20,26,17,12,84,48,20,30.10,29.98,5,1,9,0.00
2013-3-23,56,44,35,34,27,21,81,55,28,30.08,29.93,3,0,6,0.00
2013-3-24,42,38,34,39,35,31,97,89,71,29.95,29.59,9,1,9,0.70
2013-3-25,49,40,35,39,32,24,98,75,42,29.82,29.57,8,1,14,0.01
2013-3-26,51,42,32,32,28,26,82,59,43,30.11,29.82,5,1,8,0.00
2013-3-27,54,41,29,30,26,22,91,58,30,30.24,30.11,7,1,10,0.00
2013-3-28,58,42,28,30,26,23,90,57,26,30.30,30.16,5,1,11,0.00
2013-3-29,62,45,29,32,28,25,94,56,24,30.35,30.19,5,0,9,0.00
2013-3-30,69,52,35,44,34,28,86,56,25,30.26,30.10,5,0,9,0.00
2013-3-31,69,57,48,58,52,44,97,82,62,30.12,29.81,5,1,9,0.63
2013-4-1,74,60,50,55,48,36,99,69,30,29.99,29.81,6,1,11,0.08
2013-4-2,62,47,32,35,29,20,92,53,20,30.17,30.00,5,1,12,0.00
2013-4-3,61,48,34,32,24,18,75,44,20,30.31,30.16,4,0,8,0.00
2013-4-4,51,43,38,41,32,22,97,70,41,30.39,29.95,7,1,12,0.68
2013-4-5,66,49,40,49,43,39,98,84,47,30.03,29.88,4,0,6,0.06
2013-4-6,68,53,40,41,33,24,95,52,24,30.29,30.03,5,1,7,0.00
2013-4-7,74,54,33,45,38,31,96,60,32,30.30,30.12,7,1,11,0.00
2013-4-8,81,67,55,57,53,44,95,63,37,30.18,30.05,6,1,12,0.00
2013-4-9,87,72,60,60,57,53,92,62,34,30.18,30.05,6,1,9,0.00
2013-4-10,90,76,64,63,59,56,86,60,33,30.09,29.93,7,1,12,0.00
2013-4-11,83,73,64,67,61,58,91,69,44,29.99,29.80,6,1,12,0.00
2013-4-12,83,73,64,70,64,44,96,76,44,29.81,29.60,8,2,16,0.63
2013-4-13,77,62,47,49,43,38,88,53,26,30.01,29.75,5,0,7,0.00
2013-4-14,83,65,45,54,45,36,98,57,20,30.12,30.01,3,0,8,0.00
2013-4-15,73,64,58,60,57,55,96,80,57,30.23,30.04,5,0,8,0.04
2013-4-16,79,65,58,62,59,56,98,83,48,30.32,30.21,4,0,6,0.00
2013-4-17,85,70,58,68,62,58,99,79,48,30.24,30.11,3,0,6,0.00
2013-4-18,82,70,58,64,61,57,97,73,45,30.21,30.05,9,1,12,0.00
2013-4-19,83,71,65,70,66,62,97,84,61,30.06,29.71,8,1,22,0.65
2013-4-20,66,55,44,65,44,34,97,71,31,30.28,29.81,6,0,11,0.13
2013-4-21,63,51,38,42,40,37,98,68,43,30.51,30.28,5,0,9,0.00
2013-4-22,63,50,36,46,40,34,95,73,46,30.52,30.29,5,1,9,0.00
2013-4-23,70,56,49,54,48,44,94,77,48,30.30,30.13,3,0,5,0.00
2013-4-24,78,63,48,58,54,47,98,76,46,30.16,29.97,7,1,11,0.00
2013-4-25,73,61,50,58,49,41,91,66,34,30.29,30.02,4,0,9,0.00
2013-4-26,74,58,43,50,44,35,99,65,26,30.44,30.28,3,0,7,0.00
2013-4-27,76,62,50,54,47,41,85,61,30,30.39,30.27,3,0,7,0.00
2013-4-28,62,58,54,58,52,46,97,80,63,30.27,30.12,2,0,4,0.35
2013-4-29,74,63,55,65,60,54,99,92,69,30.13,29.98,1,0,5,1.19
2013-4-30,68,61,54,62,59,53,99,93,73,30.19,30.01,3,0,4,0.00
2013-5-1,62,59,55,60,57,55,99,95,93,30.35,30.17,3,0,10,0.03
2013-5-2,63,59,53,59,56,51,97,92,83,30.35,30.27,3,0,6,0.01
2013-5-3,72,57,47,57,50,45,99,79,45,30.29,30.19,5,1,10,0.00
2013-5-4,64,55,49,56,50,46,92,83,70,30.24,30.11,7,1,10,0.00
2013-5-5,60,55,50,57,52,47,94,90,83,30.13,30.02,4,1,10,0.01
2013-5-6,68,61,56,66,60,55,99,95,87,30.03,29.85,6,1,12,1.35
2013-5-7,72,61,52,62,57,51,100,89,56,29.96,29.86,2,0,6,0.08
2013-5-8,72,60,50,64,57,50,99,90,61,30.02,29.93,4,0,8,0.06
2013-5-9,82,66,53,66,59,52,99,80,42,30.07,29.98,5,0,7,0.00
2013-5-10,87,72,55,66,61,54,99,72,42,30.07,29.94,3,0,10,0.00
2013-5-11,83,72,66,71,65,60,98,80,53,29.96,29.79,4,0,10,0.31
2013-5-12,74,64,48,65,54,39,99,74,34,30.04,29.79,4,0,9,0.02
2013-5-13,68,54,40,48,41,33,97,67,30,30.20,30.03,5,0,10,0.00
2013-5-14,72,56,37,50,42,36,99,66,28,30.27,30.09,3,0,6,0.00
2013-5-15,90,70,54,65,56,45,83,64,41,30.09,29.89,4,0,8,0.00
2013-5-16,86,74,62,68,63,59,96,71,45,29.98,29.89,3,0,8,0.00
2013-5-17,89,74,60,71,64,58,98,73,39,30.09,29.98,3,0,6,0.00
2013-5-18,79,70,63,71,66,60,97,88,71,30.18,30.07,2,0,4,0.34
2013-5-19,78,70,63,72,68,63,99,94,77,30.16,30.07,4,0,8,0.58
2013-5-20,79,71,67,73,69,67,99,94,79,30.13,30.03,6,0,8,1.12
2013-5-21,86,75,68,75,70,68,99,87,61,30.06,29.95,3,0,7,0.00
2013-5-22,87,75,69,73,70,67,97,83,58,30.03,29.91,4,0,9,0.00
2013-5-23,85,74,68,73,69,68,98,87,62,29.96,29.82,3,0,5,0.02
2013-5-24,71,63,46,68,55,41,99,79,45,30.19,29.80,9,1,15,0.06
2013-5-25,76,56,39,50,43,36,99,68,26,30.28,30.15,5,0,10,0.00
2013-5-26,78,58,42,57,47,42,98,73,31,30.29,30.19,2,0,5,0.00
2013-5-27,83,65,49,61,54,48,99,73,37,30.30,30.17,3,0,7,0.00
2013-5-28,86,72,59,70,63,55,94,74,54,30.27,30.15,3,0,11,0.00
2013-5-29,87,74,63,68,65,62,98,75,46,30.25,30.16,3,0,9,0.00
2013-5-30,89,74,62,71,66,61,98,77,43,30.27,30.18,2,0,6,0.00
2013-5-31,90,76,65,72,68,64,99,78,44,30.23,30.10,3,0,8,0.00
2013-6-1,90,78,67,71,68,65,98,75,46,30.14,30.02,3,0,7,0.00
2013-6-2,89,77,67,72,68,65,95,76,52,30.06,29.91,9,0,9,0.06
2013-6-3,87,74,67,75,71,66,98,90,63,29.96,29.83,4,0,6,0.18
2013-6-4,80,71,64,69,65,62,99,85,62,30.11,29.94,2,0,5,0.00
2013-6-5,84,72,60,68,62,58,99,74,43,30.16,30.03,5,0,8,0.00
2013-6-6,76,70,65,73,67,58,98,89,68,30.07,29.83,3,0,8,0.45
2013-6-7,76,71,69,75,70,68,99,98,95,29.87,29.50,6,0,12,2.74
2013-6-8,84,73,67,74,70,66,100,89,63,30.10,29.82,3,0,7,0.02
2013-6-9,89,77,66,76,71,66,99,84,56,30.17,30.06,5,0,8,0.02
2013-6-10,84,75,72,79,73,70,98,93,78,30.11,29.89,5,1,12,0.49
2013-6-11,86,76,68,72,69,67,96,81,53,29.95,29.89,4,0,7,0.00
2013-6-12,92,77,63,78,71,63,99,83,57,29.97,29.87,5,0,6,0.00
2013-6-13,94,79,68,79,73,63,99,84,50,29.87,29.59,9,0,17,0.19
2013-6-14,80,69,58,67,62,58,100,82,50,30.02,29.72,10,0,10,0.01
2013-6-15,86,71,57,70,63,56,99,80,46,30.13,30.01,3,0,6,0.00
2013-6-16,88,75,65,72,66,58,95,75,57,30.13,30.00,4,0,9,0.00
2013-6-17,86,77,71,77,71,66,92,82,68,30.03,29.93,2,0,6,0.01
2013-6-18,85,74,69,76,72,68,98,91,70,29.97,29.76,3,0,10,0.97
2013-6-19,82,72,64,72,68,64,99,87,61,30.13,29.88,3,0,4,0.01
2013-6-20,84,72,63,69,64,57,99,79,51,30.26,30.13,3,0,7,0.00
2013-6-21,85,70,54,68,60,53,99,76,41,30.27,30.20,3,0,6,0.00
2013-6-22,84,73,69,74,70,68,98,90,68,30.23,30.13,3,0,6,0.09
2013-6-23,87,76,67,77,72,67,99,88,67,30.22,30.13,5,0,7,0.00
2013-6-24,89,78,71,78,74,70,99,87,66,30.21,30.09,4,0,6,0.00
2013-6-25,91,78,70,79,73,69,98,85,67,30.13,30.00,7,0,11,0.00
2013-6-26,91,78,69,78,72,68,98,85,59,30.04,29.88,3,0,10,0.05
2013-6-27,90,78,68,78,73,67,99,86,61,29.92,29.71,4,0,8,0.01
2013-6-28,92,79,71,78,73,69,98,85,58,29.76,29.57,3,0,14,1.08
2013-6-29,86,76,70,77,73,69,99,90,65,29.74,29.60,3,0,5,0.74
2013-6-30,88,76,71,78,73,70,99,92,70,29.87,29.72,3,0,9,0.94
2013-7-1,84,76,70,76,73,69,99,92,78,30.00,29.85,4,0,9,1.47
2013-7-2,78,74,72,75,73,71,99,96,90,30.20,30.00,4,0,6,0.42
2013-7-3,87,78,73,79,75,73,99,92,70,30.25,30.16,3,0,10,0.40
2013-7-4,90,79,73,78,74,71,99,86,54,30.29,30.19,5,1,7,0.02
2013-7-5,91,80,72,78,74,71,99,83,57,30.29,30.16,3,0,8,0.00
2013-7-6,89,79,73,78,74,72,98,86,64,30.26,30.12,2,0,4,0.00
2013-7-7,91,79,70,79,74,69,99,86,64,30.20,30.06,3,0,6,0.00
2013-7-8,91,77,71,79,74,71,99,90,58,30.18,30.09,4,0,7,0.54
2013-7-9,90,77,71,80,74,70,99,92,63,30.16,30.07,5,0,8,0.98
2013-7-10,89,79,72,79,75,71,99,89,68,30.11,29.95,3,0,13,0.24
2013-7-11,82,75,72,78,74,72,99,97,82,29.99,29.89,2,0,4,0.51
2013-7-12,77,73,70,73,72,70,99,95,86,30.03,29.88,4,0,5,0.01
2013-7-13,80,74,70,78,73,69,99,96,86,30.20,30.02,2,0,6,0.55
2013-7-14,89,78,71,78,74,70,100,86,61,30.31,30.20,5,0,5,0.01
2013-7-15,92,78,67,79,72,67,100,86,54,30.33,30.25,3,0,5,0.00
2013-7-16,97,80,69,83,75,68,100,85,55,30.28,30.18,2,0,3,0.00
2013-7-17,94,83,72,82,76,71,99,81,52,30.23,30.11,2,0,5,0.00
2013-7-18,96,83,72,82,77,72,99,84,54,30.14,30.04,1,0,3,0.00
2013-7-19,92,82,74,81,76,73,99,85,64,30.09,29.98,3,0,7,0.00
2013-7-20,91,80,75,79,75,73,95,85,67,30.03,29.92,3,0,7,0.00
2013-7-21,89,78,73,79,75,72,97,89,65,30.00,29.91,2,0,6,0.00
2013-7-22,89,79,71,79,75,71,99,89,68,29.95,29.82,4,0,7,0.00
2013-7-23,90,80,74,78,74,73,96,84,60,29.85,29.72,4,0,8,0.00
2013-7-24,93,80,69,80,73,69,99,82,48,29.85,29.73,2,0,4,0.00
2013-7-25,81,73,66,73,70,65,98,89,73,30.04,29.83,2,0,6,0.00
2013-7-26,88,72,60,72,65,60,100,82,51,30.12,30.03,3,0,4,0.00
2013-7-27,87,74,66,75,70,65,99,87,57,30.07,29.93,3,0,5,0.10
2013-7-28,88,77,69,76,72,69,100,87,59,30.00,29.93,3,0,6,0.00
2013-7-29,91,76,67,75,70,65,99,84,47,30.16,29.99,4,0,6,0.03
2013-7-30,90,73,60,75,67,59,99,84,50,30.23,30.14,3,0,4,0.00
2013-7-31,84,74,70,76,72,69,99,93,72,30.15,30.02,1,0,7,0.22
2013-8-1,86,75,70,77,73,69,99,93,67,30.03,29.86,3,0,12,0.20
2013-8-2,90,76,65,77,70,65,100,85,52,30.03,29.90,2,0,5,0.00
2013-8-3,89,76,69,80,74,69,100,93,72,30.02,29.91,3,0,9,0.77
2013-8-4,85,74,65,74,69,64,100,88,50,30.04,29.89,4,0,8,0.01
2013-8-5,83,71,60,72,65,60,100,84,50,30.11,30.02,2,0,7,0.00
2013-8-6,84,74,68,74,69,66,98,87,67,30.07,30.00,2,0,6,0.27
2013-8-7,88,77,67,76,71,67,99,84,59,30.11,30.03,5,0,7,0.00
2013-8-8,90,79,70,79,73,70,99,85,58,30.07,30.00,3,0,5,0.00
2013-8-9,92,82,73,80,76,73,99,84,63,30.05,29.97,3,0,6,0.00
2013-8-10,92,79,74,82,76,73,99,90,66,30.10,30.00,4,0,9,0.86
2013-8-11,94,80,72,81,76,72,100,88,57,30.11,30.00,2,0,4,0.00
2013-8-12,93,80,72,80,74,72,100,85,54,30.05,29.93,2,0,5,0.00
2013-8-13,89,78,71,80,74,70,99,91,68,29.98,29.78,4,0,10,0.33
2013-8-14,77,70,59,72,67,58,99,88,64,30.10,29.82,3,0,5,0.00
2013-8-15,78,64,57,67,60,57,99,88,53,30.18,30.09,2,0,4,0.00
2013-8-16,72,65,57,66,62,57,100,91,70,30.20,30.11,1,0,5,0.00
2013-8-17,73,67,61,72,66,61,99,97,94,30.20,30.13,1,0,5,0.09
2013-8-18,81,72,67,74,70,66,100,92,73,30.22,30.12,4,0,8,0.03
2013-8-19,77,70,66,73,69,66,99,97,87,30.21,30.11,3,0,4,0.56
2013-8-20,84,74,66,76,71,66,100,92,74,30.20,30.12,2,0,3,0.01
2013-8-21,87,76,71,78,74,71,100,93,73,30.23,30.10,2,0,6,0.02
2013-8-22,91,78,69,78,73,69,100,87,56,30.15,29.99,3,0,8,0.00
2013-8-23,88,76,68,78,72,67,100,88,65,30.08,29.92,2,0,7,0.00
2013-8-24,84,72,63,68,64,61,98,80,46,30.32,30.08,4,0,6,0.00
2013-8-25,81,69,59,68,62,56,100,82,47,30.41,30.30,4,0,5,0.00
2013-8-26,84,67,53,68,61,53,100,83,42,30.34,30.12,2,0,4,0.00
2013-8-27,90,73,61,77,68,60,98,86,57,30.13,29.96,2,0,4,0.00
2013-8-28,82,75,68,77,73,68,100,95,80,29.99,29.86,2,0,3,0.03
2013-8-29,88,78,70,77,74,69,99,88,65,30.02,29.83,3,0,7,0.00
2013-8-30,89,75,66,73,68,64,99,83,48,30.07,29.95,2,0,4,0.00
2013-8-31,90,77,67,75,71,67,100,85,55,29.98,29.87,3,0,8,0.00
2013-9-1,90,76,71,80,74,71,99,92,67,29.90,29.79,4,0,11,2.49
2013-9-2,90,78,70,79,74,70,100,90,65,29.89,29.80,2,0,5,0.00
2013-9-3,89,77,71,79,74,70,100,91,67,29.94,29.80,3,0,5,0.00
2013-9-4,87,74,67,74,69,66,100,86,60,30.10,29.94,2,0,6,0.00
2013-9-5,88,72,62,72,66,58,100,83,38,30.11,30.03,1,0,1,0.01
2013-9-6,84,70,60,70,64,59,99,83,47,30.19,30.09,0,0,1,0.00
2013-9-7,84,69,57,70,64,57,100,85,54,30.15,29.99,0,0,1,0.00
2013-9-8,89,72,61,74,66,60,100,84,42,30.00,29.91,0,0,1,0.00
2013-9-9,87,74,64,75,69,64,100,86,58,30.16,30.00,3,0,7,0.00
2013-9-10,90,77,67,75,71,67,100,85,54,30.24,30.15,0,0,0,0.01
2013-9-11,90,76,67,75,71,67,99,85,55,30.21,30.08,0,0,0,0.00
2013-9-12,91,77,68,78,72,68,97,84,59,30.08,29.81,0,0,0,0.00
2013-9-13,85,72,61,71,66,59,99,83,51,29.90,29.76,3,0,7,0.00
2013-9-14,78,65,57,62,55,50,96,73,42,30.16,29.90,3,0,7,0.00
2013-9-15,81,64,50,66,58,49,99,81,50,30.26,30.13,3,0,6,0.00
2013-9-16,85,72,63,74,66,61,99,84,49,30.21,30.05,4,0,6,0.26
2013-9-17,78,65,55,62,56,52,99,77,43,30.34,30.20,3,0,7,0.00
2013-9-18,76,59,47,60,53,46,99,83,44,30.33,30.19,3,0,4,0.00
2013-9-19,76,64,54,66,59,53,99,87,56,30.22,30.10,2,0,3,0.00
2013-9-20,75,67,61,69,65,60,99,93,79,30.11,29.98,2,0,5,0.44
2013-9-21,76,70,66,72,68,65,99,95,85,29.98,29.73,3,0,5,0.62
2013-9-22,79,68,58,67,63,57,99,87,54,29.91,29.73,4,0,9,0.47
2013-9-23,74,61,52,62,56,52,99,84,55,30.09,29.91,3,0,5,0.00
2013-9-24,78,61,51,65,57,51,99,89,52,30.12,29.97,2,0,3,0.00
2013-9-25,75,63,52,67,60,51,100,91,61,29.98,29.88,2,0,4,0.01
2013-9-26,79,65,56,64,59,55,100,85,47,30.05,29.89,3,0,5,0.00
2013-9-27,74,61,51,64,57,50,100,88,60,30.21,30.05,2,0,5,0.00
2013-9-28,74,60,48,62,55,48,100,87,59,30.28,30.18,6,0,7,0.00
2013-9-29,77,60,49,62,55,49,100,86,47,30.19,30.05,3,0,6,0.01
2013-9-30,76,61,51,64,56,50,99,88,49,30.12,30.01,0,0,1,0.00
2013-10-1,82,64,51,71,60,51,100,87,49,30.14,30.03,4,0,5,0.01
2013-10-2,84,68,56,68,62,56,100,85,47,30.14,30.05,2,0,7,0.00
2013-10-3,85,70,59,70,64,58,100,85,47,30.14,30.06,3,0,5,0.00
2013-10-4,85,71,62,71,66,61,100,86,54,30.14,30.05,3,0,5,0.01
2013-10-5,88,73,61,73,66,61,100,83,47,30.12,30.03,3,0,6,0.00
2013-10-6,84,72,63,73,69,62,100,89,66,30.08,29.95,5,0,7,0.00
2013-10-7,74,71,63,73,70,62,99,97,94,30.00,29.86,7,0,10,1.28
2013-10-8,63,60,58,62,53,49,97,80,70,30.21,29.99,8,0,11,0.00
2013-10-9,62,58,55,58,55,52,98,90,80,30.20,30.09,7,1,9,0.16
2013-10-10,60,57,54,60,56,54,99,98,97,30.09,29.95,5,0,9,0.14
2013-10-11,66,61,59,64,61,59,100,98,90,29.98,29.91,2,0,6,0.03
2013-10-12,69,64,61,67,63,61,100,98,91,30.09,29.96,1,0,6,0.02
2013-10-13,67,64,62,66,63,62,100,98,94,30.22,30.08,4,0,6,0.09
2013-10-14,65,62,55,63,61,55,100,97,90,30.26,30.19,3,0,6,0.06
2013-10-15,71,61,51,65,59,51,100,93,75,30.21,30.08,2,0,6,0.01
2013-10-16,72,65,60,66,63,60,99,94,77,30.08,29.97,1,0,2,0.00
2013-10-17,75,67,59,68,64,59,100,92,74,29.98,29.85,3,0,6,0.01
2013-10-18,70,62,52,66,56,50,99,84,52,30.05,29.89,1,0,6,0.00
2013-10-19,71,62,58,67,61,57,99,96,85,29.99,29.82,2,0,3,0.02
2013-10-20,65,53,44,58,48,41,100,86,43,30.14,29.91,3,0,5,0.00
2013-10-21,67,52,38,53,46,38,100,85,42,30.19,30.03,3,0,5,0.01
2013-10-22,65,58,52,60,56,50,99,94,81,30.03,29.82,1,0,2,0.00
2013-10-23,66,57,45,59,50,38,100,79,45,30.00,29.69,6,0,9,0.01
2013-10-24,59,45,34,44,38,33,99,78,43,30.20,30.00,4,0,10,0.00
2013-10-25,56,43,33,40,36,30,98,79,40,30.38,30.20,5,0,8,0.00
2013-10-26,58,42,29,41,34,28,99,77,40,30.38,30.09,3,0,7,0.00
2013-10-27,67,52,40,48,43,39,97,74,41,30.15,30.07,3,0,7,0.00
2013-10-28,70,56,46,57,50,45,98,83,51,30.27,30.14,2,0,3,0.00
2013-10-29,73,59,51,60,55,51,99,89,59,30.35,30.26,2,0,3,0.00
2013-10-30,72,62,55,62,58,54,97,89,67,30.31,30.17,3,0,4,0.00
2013-10-31,75,66,57,64,59,56,98,81,60,30.21,29.94,8,0,10,0.00
2013-11-1,72,68,63,68,66,62,99,93,82,29.94,29.68,6,1,14,0.81
2013-11-2,71,61,50,62,53,44,100,81,41,29.94,29.69,4,0,9,0.01
2013-11-3,63,49,38,45,41,38,99,77,43,30.39,29.94,6,0,8,0.00
2013-11-4,55,43,34,38,35,33,96,76,46,30.59,30.39,4,0,7,0.00
2013-11-5,59,48,35,51,44,34,97,86,69,30.57,30.45,3,0,6,0.00
2013-11-6,71,56,42,58,52,42,99,88,58,30.46,30.13,3,0,5,0.00
2013-11-7,68,60,45,64,55,36,100,86,58,30.13,29.92,3,0,9,0.10
2013-11-8,57,43,31,38,33,29,97,71,35,30.35,30.11,3,0,9,0.00
2013-11-9,58,44,31,40,34,29,97,71,36,30.40,30.19,3,0,7,0.00
2013-11-10,71,53,40,43,38,31,90,60,29,30.26,30.07,4,0,10,0.00
2013-11-11,60,44,30,37,33,29,96,68,33,30.37,30.16,2,0,5,0.00
2013-11-12,60,43,34,43,34,20,94,74,43,30.45,30.07,6,1,13,0.01
2013-11-13,45,33,23,24,21,18,90,65,34,30.56,30.44,6,0,8,0.00
2013-11-14,58,39,24,29,26,23,94,63,28,30.49,30.36,3,0,6,0.00
2013-11-15,63,48,31,49,37,26,90,70,41,30.38,30.24,3,0,7,0.00
2013-11-16,65,56,50,59,53,48,99,92,79,30.29,30.23,4,0,4,0.00
2013-11-17,70,62,53,66,59,53,100,92,76,30.24,29.91,3,0,7,0.04
2013-11-18,75,65,52,68,54,33,99,71,45,29.97,29.81,3,0,12,0.03
2013-11-19,56,47,39,36,32,29,77,57,37,30.35,29.97,6,0,8,0.00
2013-11-20,53,44,36,40,34,29,91,69,51,30.48,30.34,5,0,7,0.00
2013-11-21,61,49,38,51,44,37,95,84,66,30.53,30.41,2,0,5,0.00
2013-11-22,70,58,46,61,54,45,97,87,74,30.42,30.09,3,0,6,0.02
2013-11-23,62,54,40,61,45,26,99,74,45,30.18,30.04,3,0,7,0.01
2013-11-24,40,32,23,30,13,6,71,47,27,30.58,30.18,7,1,13,0.00
2013-11-25,42,30,17,23,14,9,90,56,25,30.63,30.41,4,0,6,0.00
2013-11-26,66,45,34,65,39,19,99,79,48,30.43,29.59,7,1,14,0.85
2013-11-27,51,40,29,50,38,22,99,93,71,30.17,29.51,6,1,9,0.87
2013-11-28,44,31,21,27,23,19,95,74,42,30.52,30.18,2,0,4,0.00
2013-11-29,49,35,25,30,27,24,97,74,42,30.68,30.50,5,0,7,0.00
2013-11-30,49,34,25,35,29,24,97,82,58,30.68,30.40,4,0,5,0.00
2013-12-1,57,43,26,38,34,25,98,74,40,30.40,30.06,3,0,4,0.00
2013-12-2,59,43,35,46,39,34,98,87,56,30.06,29.85,2,0,4,0.00
2013-12-3,59,48,34,48,42,33,98,82,62,30.02,29.90,3,0,6,0.00
2013-12-4,62,57,51,58,54,48,99,91,84,30.10,30.00,1,0,5,0.02
2013-12-5,67,62,54,65,61,54,100,97,92,30.15,30.05,6,0,8,0.08
2013-12-6,79,71,65,66,64,63,98,82,62,30.08,29.97,11,2,16,0.00
2013-12-7,70,48,42,66,44,33,97,86,69,30.48,29.99,5,1,10,0.20
2013-12-8,42,36,33,34,33,30,98,90,68,30.50,30.32,3,0,6,0.16
2013-12-9,45,40,35,45,40,34,99,99,98,30.32,30.09,2,0,4,0.26
2013-12-10,46,42,28,46,41,27,99,97,87,30.34,29.95,3,0,10,0.51
2013-12-11,49,35,24,31,27,23,99,77,39,30.49,30.31,5,0,7,0.01
2013-12-12,44,33,25,30,23,12,96,72,28,30.45,30.30,4,0,8,0.00
2013-12-13,50,36,23,30,24,20,93,65,33,30.42,30.30,5,0,7,0.00
2013-12-14,49,42,39,42,36,29,99,82,51,30.33,29.80,6,0,6,0.85
2013-12-15,54,42,31,45,37,28,99,85,52,30.09,29.72,4,0,10,0.02
2013-12-16,54,40,29,37,33,28,96,77,47,30.20,30.08,3,0,6,0.01
2013-12-17,62,47,34,42,37,33,97,73,41,30.15,29.89,5,0,12,0.00
2013-12-18,48,38,30,38,26,20,93,63,33,30.31,30.05,5,0,9,0.00
2013-12-19,62,46,30,31,27,24,79,51,26,30.35,30.24,6,0,10,0.00
2013-12-20,67,55,45,55,47,31,91,74,54,30.26,30.13,9,1,13,0.00
2013-12-21,74,62,51,67,57,49,95,84,66,30.17,30.05,9,1,16,0.00
2013-12-22,78,70,65,69,66,62,96,86,66,30.13,30.02,12,2,15,0.45
2013-12-23,67,61,47,66,60,44,99,97,90,30.16,30.00,4,0,9,1.87
2013-12-24,47,40,29,44,32,17,98,72,52,30.48,30.14,4,1,11,0.01
2013-12-25,40,28,20,21,18,13,90,66,35,30.59,30.43,2,0,7,0.00
2013-12-26,52,35,23,32,27,20,94,76,39,30.44,30.27,2,0,7,0.00
2013-12-27,53,36,24,29,25,22,96,70,31,30.50,30.39,2,0,4,0.00
2013-12-28,59,43,28,36,30,26,94,65,32,30.44,30.19,3,0,5,0.00
2013-12-29,62,50,43,61,47,35,100,93,55,30.19,29.70,7,0,11,1.74
2013-12-30,54,44,36,46,41,35,100,90,66,30.16,29.94,1,0,4,0.01
2013-12-31,51,41,31,40,33,25,99,76,36,30.38,30.14,8,0,10,0.01
2014-1-1,51,38,30,33,29,26,93,72,38,30.45,30.17,3,0,6,0.00
2014-1-2,48,42,36,44,39,32,98,87,70,30.18,29.58,2,0,12,0.38